Location: ?
(35.4554°N, 139.3092°E)
Time: 21:06:53
(UTC+00:00)

CZ-4C R/B - Pass Details

Date: 21 April 2021
Orbit: 612 x 1390 km, 63.4° (Epoch: 10 May)

Event Time Altitude Azimuth Distance (km) Brightness Sun altitude
Rises 18:41:10 0° 315° (NW) 4,083 5.6 -16.1°
Reaches altitude 10° 18:44:14 10° 304° (NW) 3,218 4.9 -15.5°
Maximum altitude 18:50:40 28° 250° (WSW) 2,290 3.8 -14.4°
Drops below altitude 10° 18:57:34 10° 196° (SSW) 3,450 5.0 -13.1°
Sets 19:01:01 0° 186° (S) 4,426 5.6 -12.5°
